Regional Weather Roundup
Issued by NWS

Home | Current Version | Previous Version | Text Only | Print | Product List | Glossary Off
Versions: 1 2 3 4 5 6 7 8 9 10 11 12 13 14 15 16 17 18 19 20 21 22 23 24 25 26 27 28 29 30 31 32 33 34 35 36 37 38 39 40 41 42 43 44 45 46 47 48 49 50

000
ASUS43 KFSD 191902
RWRSD

WEATHER ROUNDUP FOR SOUTH DAKOTA
NATIONAL WEATHER SERVICE SIOUX FALLS SD
200 PM CDT SAT APR 19 2014

NOTE: "FAIR" INDICATES FEW OR NO CLOUDS BELOW 12,000 FEET WITH NO
SIGNIFICANT WEATHER AND/OR OBSTRUCTIONS TO VISIBILITY.


SDZ001>005-009-010-012>017-192000-
NORTHWEST AND NORTH CENTRAL SOUTH DAKOTA

CITY           SKY/WX    TMP DP  RH WIND       PRES   REMARKS
FAITH            N/A     62  23  22 NW16G25   29.98F
MOBRIDGE       SUNNY     65  26  23 NW17G25   29.93F
$$

SDZ012>016-024>037-041>051-057-063-072>074-192000-
SOUTHWEST AND SOUTH CENTRAL SOUTH DAKOTA

CITY           SKY/WX    TMP DP  RH WIND       PRES   REMARKS
RAPID CTY ARPT MOSUNNY   59  18  20 VRB7      30.03F
PIERRE         MOSUNNY   64  23  21 VRB7      30.00F
CUSTER         MOSUNNY   53  31  42 S10       30.04F
ELLSWORTH AFB  MOSUNNY   59  20  22 S6        30.03S
PHILIP         MOSUNNY   65  22  19 MISG      30.02F
PINE RIDGE     PTSUNNY   61  26  26 NE6       30.05F
WINNER         FAIR      65  18  16 N8        30.03F
$$

SDZ004>011-016>023-039-040-192000-
NORTHEAST SOUTH DAKOTA

CITY           SKY/WX    TMP DP  RH WIND       PRES   REMARKS
ABERDEEN       MOSUNNY   67  24  19 W16       29.96F
WATERTOWN      CLOUDY    58  29  33 W8        29.99R
SISSETON         N/A     67  27  22 W14       29.93F
$$

SDZ017-020-022-023-036>040-048>070-192000-
SOUTHEAST SOUTH DAKOTA

CITY           SKY/WX    TMP DP  RH WIND       PRES   REMARKS
SIOUX FALLS    PTSUNNY   68  43  40 N13       29.98S
HURON          PTSUNNY   65  24  21 NW8G16    30.00S
CHAMBERLAIN      N/A     65  23  20 CALM      30.03F
MITCHELL       CLOUDY    64  31  28 NW10      30.00F
YANKTON        PTSUNNY   68  45  42 NW10      29.99S
$$

ABBREVIATIONS USED IN REMARKS
   TC - TEMPERATURE IN CELSIUS
  WCI - WIND CHILL INDEX
   HX - HEAT INDEX
  VSB - VISIBILITY




USA.gov is the U.S. government's official web portal to all federal, state and local government web resources and services.